Hourly Weather Cesvaine

Today, 19 June, Saturday

Time Temperature Precipitation Wind Pressure Humidity
00:00 +18°C° 0 mm 1 mps 753 mmHg 88%
01:00 +18°C° 0 mm 1 mps 753 mmHg 90%
02:00 +18°C° 0 mm 1 mps 752 mmHg 91%
03:00 +18°C° 0 mm 1 mps 753 mmHg 90%
04:00 +18°C° 0 mm 1 mps 753 mmHg 89%
05:00 +19°C° 0 mm 1 mps 753 mmHg 88%
06:00 +20°C° 0 mm 2 mps 753 mmHg 79%
07:00 +23°C° 0 mm 2 mps 753 mmHg 70%
08:00 +25°C° 0 mm 2 mps 753 mmHg 61%
09:00 +26°C° 0 mm 3 mps 752 mmHg 55%
10:00 +27°C° 0 mm 3 mps 752 mmHg 49%
11:00 +29°C° 0 mm 3 mps 752 mmHg 43%
12:00 +29°C° 0 mm 3 mps 752 mmHg 41%
13:00 +30°C° 0 mm 3 mps 752 mmHg 39%
14:00 +31°C° 0 mm 3 mps 751 mmHg 36%
15:00 +30°C° 0 mm 3 mps 751 mmHg 37%
16:00 +30°C° 0 mm 3 mps 751 mmHg 39%
17:00 +30°C° 0 mm 3 mps 751 mmHg 40%
18:00 +28°C° 0 mm 2 mps 751 mmHg 51%
19:00 +26°C° 0 mm 2 mps 751 mmHg 62%
20:00 +24°C° 0 mm 2 mps 750 mmHg 73%
21:00 +23°C° 0 mm 2 mps 750 mmHg 77%
22:00 +20°C° 0 mm 2 mps 750 mmHg 81%
23:00 +19°C° 0 mm 2 mps 750 mmHg 86%

Tomorrow, 20 June, Sunday

Time Temperature Precipitation Wind Pressure Humidity
00:00 +19°C° 0 mm 2 mps 751 mmHg 88%
01:00 +18°C° 0 mm 2 mps 751 mmHg 91%
02:00 +18°C° 0 mm 2 mps 751 mmHg 94%
03:00 +18°C° 0 mm 2 mps 751 mmHg 92%
04:00 +18°C° 0 mm 2 mps 751 mmHg 91%
05:00 +18°C° 0 mm 2 mps 750 mmHg 89%
06:00 +20°C° 0 mm 2 mps 750 mmHg 81%
07:00 +23°C° 0 mm 2 mps 750 mmHg 72%
08:00 +25°C° 0 mm 3 mps 750 mmHg 64%
09:00 +27°C° 0 mm 3 mps 750 mmHg 58%
10:00 +28°C° 0 mm 3 mps 750 mmHg 52%
11:00 +30°C° 0 mm 3 mps 750 mmHg 46%
12:00 +31°C° 0 mm 3 mps 750 mmHg 43%
13:00 +31°C° 0 mm 3 mps 750 mmHg 40%
14:00 +33°C° 0 mm 4 mps 750 mmHg 37%
15:00 +31°C° 0 mm 3 mps 749 mmHg 44%
16:00 +30°C° 0 mm 3 mps 749 mmHg 50%
17:00 +29°C° 0 mm 3 mps 749 mmHg 56%
18:00 +28°C° 0 mm 2 mps 749 mmHg 63%
19:00 +27°C° 0 mm 2 mps 749 mmHg 69%
20:00 +26°C° 0 mm 2 mps 749 mmHg 75%
21:00 +25°C° 0.1 mm 2 mps 749 mmHg 79%
22:00 +24°C° 0.1 mm 2 mps 749 mmHg 84%
23:00 +21°C° 0.1 mm 2 mps 749 mmHg 88%

Day after tomorrow, 21 June, Monday

Time Temperature Precipitation Wind Pressure Humidity
00:00 +21°C° 0 mm 2 mps 749 mmHg 91%
01:00 +20°C° 0 mm 2 mps 749 mmHg 93%
02:00 +20°C° 0 mm 2 mps 749 mmHg 96%
03:00 +20°C° 0 mm 2 mps 749 mmHg 95%
04:00 +20°C° 0 mm 2 mps 749 mmHg 94%
05:00 +20°C° 0 mm 2 mps 748 mmHg 93%
06:00 +23°C° 0 mm 2 mps 749 mmHg 85%
07:00 +24°C° 0 mm 3 mps 749 mmHg 77%
08:00 +26°C° 0 mm 3 mps 749 mmHg 69%
09:00 +28°C° 0 mm 3 mps 749 mmHg 62%
10:00 +29°C° 0 mm 3 mps 749 mmHg 55%
11:00 +30°C° 0 mm 3 mps 749 mmHg 49%
12:00 +31°C° 0 mm 3 mps 748 mmHg 45%
13:00 +33°C° 0 mm 3 mps 748 mmHg 41%
14:00 +34°C° 0 mm 3 mps 748 mmHg 37%
15:00 +33°C° 0 mm 3 mps 748 mmHg 39%
16:00 +33°C° 0 mm 3 mps 748 mmHg 41%
17:00 +33°C° 0 mm 3 mps 747 mmHg 43%
18:00 +30°C° 0 mm 3 mps 747 mmHg 52%
19:00 +27°C° 0 mm 2 mps 747 mmHg 62%
20:00 +25°C° 0 mm 1 mps 747 mmHg 71%
21:00 +24°C° 0 mm 2 mps 747 mmHg 74%
22:00 +23°C° 0 mm 2 mps 747 mmHg 77%
23:00 +20°C° 0 mm 2 mps 748 mmHg 80%

22 June, Tuesday

Time Temperature Precipitation Wind Pressure Humidity
00:00 +20°C° 0 mm 2 mps 747 mmHg 83%
01:00 +20°C° 0 mm 2 mps 747 mmHg 86%
02:00 +19°C° 0 mm 2 mps 747 mmHg 88%
03:00 +20°C° 0 mm 2 mps 747 mmHg 88%
04:00 +20°C° 0 mm 2 mps 747 mmHg 89%
05:00 +20°C° 0 mm 2 mps 747 mmHg 89%
06:00 +23°C° 0 mm 2 mps 747 mmHg 83%
07:00 +25°C° 0 mm 3 mps 747 mmHg 77%
08:00 +27°C° 0 mm 3 mps 747 mmHg 71%
09:00 +27°C° 0.5 mm 3 mps 747 mmHg 73%
10:00 +26°C° 0.5 mm 3 mps 747 mmHg 76%
11:00 +26°C° 0.5 mm 3 mps 747 mmHg 79%
12:00 +27°C° 0.2 mm 3 mps 747 mmHg 74%
13:00 +28°C° 0.2 mm 3 mps 747 mmHg 68%
14:00 +28°C° 0.2 mm 3 mps 747 mmHg 63%
15:00 +29°C° 0 mm 3 mps 747 mmHg 59%
16:00 +30°C° 0 mm 3 mps 747 mmHg 56%
17:00 +30°C° 0 mm 4 mps 747 mmHg 52%
18:00 +29°C° 0.4 mm 3 mps 747 mmHg 62%
19:00 +27°C° 0.4 mm 3 mps 747 mmHg 71%
20:00 +25°C° 0.4 mm 2 mps 747 mmHg 80%
21:00 +24°C° 0.4 mm 2 mps 747 mmHg 85%
22:00 +23°C° 0.4 mm 2 mps 747 mmHg 89%
23:00 +22°C° 0.4 mm 1 mps 747 mmHg 93%

23 June, Wednesday

Time Temperature Precipitation Wind Pressure Humidity
00:00 +22°C° 0.1 mm 1 mps 747 mmHg 94%
01:00 +21°C° 0.1 mm 1 mps 748 mmHg 95%
02:00 +21°C° 0.1 mm 1 mps 748 mmHg 95%
03:00 +21°C° 0 mm 1 mps 748 mmHg 94%
04:00 +21°C° 0 mm 1 mps 748 mmHg 93%
05:00 +22°C° 0 mm 1 mps 748 mmHg 92%
06:00 +23°C° 0.1 mm 2 mps 748 mmHg 86%
07:00 +25°C° 0.1 mm 2 mps 748 mmHg 80%
08:00 +27°C° 0.1 mm 2 mps 748 mmHg 74%
09:00 +28°C° 0.8 mm 2 mps 748 mmHg 69%
10:00 +29°C° 0.8 mm 2 mps 749 mmHg 65%
11:00 +30°C° 0.8 mm 2 mps 749 mmHg 60%
12:00 +31°C° 0.3 mm 3 mps 749 mmHg 58%
13:00 +31°C° 0.3 mm 3 mps 749 mmHg 55%
14:00 +31°C° 0.3 mm 3 mps 749 mmHg 53%
15:00 +31°C° 0.2 mm 3 mps 749 mmHg 54%
16:00 +31°C° 0.2 mm 3 mps 749 mmHg 55%
17:00 +31°C° 0.2 mm 3 mps 749 mmHg 56%
18:00 +29°C° 1 mm 2 mps 749 mmHg 65%
19:00 +27°C° 1 mm 2 mps 749 mmHg 75%
20:00 +25°C° 1 mm 1 mps 749 mmHg 84%
21:00 +24°C° 1.1 mm 1 mps 749 mmHg 87%
22:00 +23°C° 1.1 mm 1 mps 749 mmHg 91%
23:00 +22°C° 1.1 mm 1 mps 749 mmHg 94%

24 June, Thursday

Time Temperature Precipitation Wind Pressure Humidity
00:00 +22°C° 0.9 mm 1 mps 749 mmHg 95%
01:00 +21°C° 0.9 mm 1 mps 749 mmHg 95%
02:00 +19°C° 0.9 mm 0 mps 749 mmHg 96%
03:00 +21°C° 0.3 mm 1 mps 749 mmHg 95%
04:00 +21°C° 0.3 mm 1 mps 749 mmHg 95%
05:00 +22°C° 0.3 mm 1 mps 749 mmHg 95%
06:00 +23°C° 0.1 mm 1 mps 749 mmHg 90%
07:00 +24°C° 0.1 mm 2 mps 749 mmHg 85%
08:00 +26°C° 0.1 mm 2 mps 749 mmHg 81%
09:00 +27°C° 0 mm 2 mps 749 mmHg 72%
10:00 +29°C° 0 mm 2 mps 749 mmHg 64%
11:00 +31°C° 0 mm 3 mps 749 mmHg 56%
12:00 +31°C° 0.3 mm 3 mps 748 mmHg 55%
13:00 +33°C° 0.3 mm 3 mps 748 mmHg 53%
14:00 +33°C° 0.3 mm 4 mps 748 mmHg 52%
15:00 +32°C° 0.3 mm 4 mps 748 mmHg 57%
16:00 +30°C° 0.3 mm 3 mps 748 mmHg 62%
17:00 +29°C° 0.3 mm 3 mps 748 mmHg 66%
18:00 +28°C° 0.3 mm 3 mps 748 mmHg 73%
19:00 +27°C° 0.3 mm 2 mps 747 mmHg 79%
20:00 +26°C° 0.3 mm 1 mps 747 mmHg 86%
21:00 +25°C° 0.2 mm 1 mps 747 mmHg 88%
22:00 +24°C° 0.2 mm 1 mps 747 mmHg 91%
23:00 +23°C° 0.2 mm 1 mps 747 mmHg 93%
Show more

We Need Your Consent

Meteoprog and our Service Providers may store and access personal data such as cookies, device identifiers or other similar technologies on your device and process such data to personalise content and ads, as well as provide social media features and to analyse the traffic.

  • Store and/or access information on your device

    Cookies, device identifiers or other information can be stored or accessed on your device for the purposes indicated above.

  • Personalised ads and content, ad and content measurement, audience insights, and products development

    Ads and content can be personalised based on a profile. More data can be added to better personalise ads and content. Ad and content performance can be measured. Insights about the audience who saw the ads and content can be derived. Such data can be used to develop or improve user’s experience, systems and software.

By clicking ‘I Agree’ you will allow the use of indicated cookies, device identifiers, web beacons or other similar technologies. Your settings can be changed in the browser on your device.

For certain purposes, legitimate interests may be relied on, rather than consent. You can read more about this in our Privacy and Cookie Policy.